www.pogodaiklimat.ru

Погода и климат >> Архив погоды >> Мексика >> Sombrerete


ПОГОДА в Sombrerete

  • Прогноз погоды в Sombrerete
  • Монитор погоды в Sombrerete
  • Климат города

АРХИВ ПОГОДЫ в Sombrerete

Время (UTC), дата Ветер
(напр.,м/с)
 
Видим.   Явления Облачность Т
(С)
Тd
(С)
f
(%)
Тe
(С)
Тes
(С)
Комфортность P
(гПа)
Po
(гПа)
Тmin
(С)
Tmax
(С)
R
(мм)
R24
(мм)
S
(см)
00 14.02 ЮВ 2 16 км осадки на расстоянии {морось} 8/8 1000 м
[Cu Sc]
+18.5 +3.7 37 +19 +19 1011.9 773.1 0.0
03 14.02 В 2 16 км 6/0 2000 м
[As trans]
+14.2 +4.7 53 +14 +14 1011.7 773.9
06 14.02 ЮВ 3 16 км 5/0 2000 м
[As trans]
+10.2 +6.4 77 +8 +8 1014.2 774.8 +7.0 +23.2
12 14.02 ЮВ 2 12 км туман туман ясно +7.5 +7.0 97 +5 +5 1018.6 774.3 +6.5 +23.2
15 14.02 Ю 2 16 км ясно +10.6 +7.9 83 +9 +12 1020.7 774.7
18 14.02 ЮЗ 2 16 км ясно +20.5 +4.2 34 +22 +35 комфорт 1020.3 775.4 +6.0 +20.5
21 14.02 С 1 16 км 5/5 1500 м
[Cu hum]
+23.5 +4.0 28 +23 +29 комфорт 1014.2 773.0
00 15.02 Ю 2 16 км 6/6 1000 м
[Cu hum]
+22.2 +3.2 29 +22 +22 комфорт 1010.0 772.3 +6.0 +25.7
03 15.02 ЮЗ 1 16 км 8/8 1500 м
[Cu hum]
+17.8 +4.3 41 +19 +19 1009.0 773.3
06 15.02 штиль 0 16 км 5/5 1110 м
[Cu hum]
+14.6 +5.5 54 +14 +14 1010.2 773.8 +6.0 +25.7
12 15.02 штиль 0 16 км ясно +9.9 +8.0 88 +9 +9 1013.9 773.4 +9.0 +25.7
15 15.02 штиль 0 16 км 3/0
[Ci fib]
+12.7 +5.6 62 +12 +17 1016.8 774.2
18 15.02 С 2 16 км 1/0
[Ci fib]
+20.2 +3.0 32 +21 +35 комфорт 1016.7 774.8 +7.8 +20.2
21 15.02 штиль 0 16 км 5/5 1500 м
[Cu med, cong]
+23.0 +4.5 30 +23 +30 комфорт 1011.5 772.3
00 16.02 штиль 0 16 км 6/6 1000 м
[Cu med, cong]
+22.8 +4.2 30 +23 +23 комфорт 1007.5 771.1 +7.8 +26.0
03 16.02 штиль 0 16 км 8/4 1500 м
[Cu hum As trans]
+17.8 +1.4 33 +18 +18 1006.6 772.0
06 16.02 штиль 0 16 км ясно +14.8 +3.3 46 +15 +15 1008.1 772.5 +7.8 +26.0
12 16.02 штиль 0 16 км ясно +12.0 +4.9 62 +12 +12 1011.7 771.8 +11.0 +26.0
15 16.02 штиль 0 16 км 5/0 2000 м
[Ac lent Ci fib]
+13.6 +3.5 50 +13 +16 1014.3 772.5
18 16.02 ЮЗ 1 16 км 4/4 1500 м
[Cu med, cong]
+23.2 +2.8 26 +23 +33 комфорт 1012.9 772.5 +10.0 +23.2
21 16.02 В 1 16 км 8/5 1020 м
[Cu med, cong Ci fib]
+25.0 +5.2 28 +25 +30 комфорт 1007.4 770.1
00 17.02 ЮВ 1 16 км 4/4 1000 м
[Cu med, cong]
+22.2 +4.7 32 +22 +23 комфорт 1004.2 769.5 +10.0 +26.6
12 17.02 штиль 0 16 км ясно +10.4 +6.2 75 +10 +10 1010.1 770.9 +9.7 +26.6
15 17.02 штиль 0 16 км 5/0
[Ci fib]
+11.8 +8.1 78 +11 +15 1013.9 772.2
18 17.02 С 2 16 км 4/4 900 м
[Cu hum]
+19.6 +5.5 40 +21 +29 комфорт 1014.2 772.3 +9.1 +19.6
21 17.02 ЮВ 1 16 км 5/5 900 м
[Cu hum]
+25.0 +6.6 31 +25 +31 комфорт 1009.2 770.2
00 18.02 В 1 16 км 4/4 600 м
[Cu hum]
+22.0 +3.9 31 +22 +22 комфорт 1005.7 769.6 +9.1 +26.8
12 18.02 штиль 0 16 км ясно +10.6 +7.0 78 +10 +10 1008.9 769.9 +9.8 +26.8
15 18.02 штиль 0 16 км 4/0 2000 м
[Ac lent]
+11.8 +6.7 71 +11 +14 1012.0 770.7
18 18.02 Ю 1 16 км 5/5 1500 м
[Cu hum]
+22.2 +6.5 36 +23 +31 комфорт 1010.5 770.2 +8.6 +22.2
21 18.02 СЗ 1 16 км 8/8 1500 м
[Cu hum]
+23.2 +6.7 35 +24 +26 комфорт 1006.0 767.9
00 19.02 Ю 1 16 км 4/4 1000 м
[Cu med, cong]
+19.8 +4.9 38 +21 +22 комфорт 1003.1 767.3 +8.6 +25.8
12 19.02 штиль 0 16 км 4/4 600 м
[Cu hum]
+8.6 +4.6 76 +8 +8 1009.7 768.2 +8.0 +25.8
15 19.02 штиль 0 16 км 3/3 1000 м
[Cu hum]
+10.4 +3.9 64 +10 +13 1012.4 768.9
18 19.02 З 3 16 км 5/0
[Cs]
+20.2 +2.1 30 +21 +32 комфорт 1010.9 768.7 +8.0 +20.2
21 19.02 З 3 16 км 8/3 1500 м
[Cu hum As trans]
+20.0 +0.1 26 +20 +24 1006.3 766.9
00 20.02 З 3 16 км 9/3 1000 м
[Cu hum As trans]
+17.8 +1.9 34 +18 +18 1003.6 766.5 +8.0 +25.8
03 20.02 СЗ 3 16 км 9/1 930 м
[Cu hum As trans]
+13.2 +5.6 60 +12 +12 1003.9 767.6
06 20.02 СЗ 2 16 км 9/0 2000 м
[As op]
+11.6 +5.3 65 +11 +11 1005.8 767.9 +8.0 +25.8
12 20.02 ЮВ 1 16 км 3/0 1500 м
[As trans]
+8.8 +4.9 76 +8 +8 1009.0 767.2 +7.8 +25.8
15 20.02 З 1 16 км 6/0 1500 м
[As op]
+10.6 +6.7 77 +10 +12 1012.2 768.7
18 20.02 СЗ 3 16 км 4/0 1500 м
[As trans]
+17.5 +2.7 37 +18 +27 1010.8 768.4 +6.8 +17.5

 

Местоположение метеостанции Sombrerete (Мексика): широта 23.63 долгота -103.60 высота над уровнем моря 2351 м.

В архиве по умолчанию представлена погода в Sombrerete за последнюю неделю. Архивные данные за месяц целиком и за предыдущие месяцы, начиная с января 2011 года, Вы можете получить, выбрав интересующий диапазон дат из раскрывающегося списка и нажав кнопку "Ввод!".

Внимание! Время в таблицах - всемирное. Для получения местного времени необходимо прибавить поправку, которая в Sombrerete равна -6 ч.

Смотрите также архив погоды в соседних городах и на ближайших метеорологических станциях:

Погода в Durango (Мексика) (112 км)
Погода в Huejucar (Мексика) (141 км)
Погода в Zacatecas (Мексика) (147 км)
Погода в Colotlan (Мексика) (174 км)
Погода в Torreon (Мексика) (212 км)
Погода в Aguascalientes (Мексика) (237 км)
Погода в Tepic (Мексика) (265 км)
Погода в Tepehuanes (Мексика) (287 км)
Погода в Mazatlan (Мексика) (290 км)
Погода в Lagos De Moreno (Мексика) (307 км)

Пояснения к столбцам:

Ветер - указаны скорость ветра в м/с - средняя за 10 мин, порывы в срок и между сроками (в фигурных скобках) и направление, откуда дует ветер: С - северный, СВ - северо-восточный, В - восточный, ЮВ - юго-восточный, Ю - южный, ЮЗ - юго-западный, З - западный, СЗ - северо-западный.
Видимость - горизонтальная дальность видимости в метрах или километрах. При видимости от 1 до 10 км при отсутствии осадков обычно наблюдается дымка, при ухудшении видимости до 1 км и менее - туман. В сухую погоду видимость может ухудшаться дымом, пылью или мглою.
Явления - указаны атмосферные явления, наблюдавшиеся в срок или в последний час перед сроком; фигурными скобками обозначены явления, наблюдавшиеся между сроками (за 1-3 часа до срока); квадратными скобками обозначены град или гололедные отложения с указанием их диаметра в мм.
Облачность - указаны через наклонную черту общая и нижняя облачность в баллах и высота нижней границы облаков в метрах; квадратными скобками обозначены формы облаков: Ci - перистые, Cs - перисто-слоистые, Cc - перисто-кучевые, Ac - высококучевые, As - высокослоистые, Sc - слоисто-кучевые, Ns - слоисто-дождевые, Cu - кучевые, Cb - кучево-дождевые. Подробнее классификацию облаков см. в Атласе облаков (PDF).
T - Температура воздуха - температура, измеренная на высоте 2 м над землей.
Td - Температура точки росы - температура, при понижении до которой содержащийся в воздухе водяной пар достигнет насыщения.
f - Относительная влажность воздуха - влажноcть воздуха, измеренная на высоте 2 м над землей.
Te - Эффективная температура - температура, которую ощущает одетый по сезону человек в тени. Характеристика душности погоды. При расчете учитывается влияние влажности воздуха и скорости ветра на теплоощущения человека.
Tes - Эффективная температура на солнце - температура, которую ощущает человек, с поправкой на солнечный нагрев. Характеристика знойности погоды. Зависит от высоты солнца над горизонтом, облачности и скорости ветра. Ночью, в пасмурную погоду, а также при ветре 12 м/с и более поправка равна нулю.
P - Атмосферное давление - приведенное к уровню моря атмосферное давление.
Po - Атмосферное давление - измеренное на уровне метеостанции атмосферное давление.
Tmin - Минимальная температура - минимум температуры воздуха на высоте 2 м над землей.
Tmax - Максимальная температура - максимум температуры воздуха на высоте 2 м над землей.
R - Количество осадков - Количество выпавших осадков за период времени, мм. При наведении курсора мыши на число - период времени, за который выпало указанное количество осадков.
R24 - Количество осадков - Количество выпавших осадков за 24 часа, мм.
S - Снежный покров - Высота снежного покрова, см. При наведении курсора мыши на число - состояние снежного покрова и степень покрытия местности в баллах.